Home   Weather   Jeddah   Past weeks

Flag for Saudi Arabia Past Weather in Jeddah, Saudi Arabia — Yesterday and Last 2 Weeks

Now
90 °F

Passing clouds.


Feels Like: 103 °F
Forecast: 83 / 94 °F
Wind: 8 mph from West

Location: Jeddah King Abdul Aziz International Airport

Current Time: Oct 1, 2016 at 6:38:12 PM

Latest Report: Oct 1, 2016 at 6:00 PM


Visibility: N/A

Pressure: 29.65 "Hg

Humidity: 67%

Dew Point: 77 °F

Location of JeddahLocation

Past Weather in Jeddah — Graph

°F

Jeddah Temperature Yesterday

Maximum temperature yesterday: 95 °F (at 11:00 AM)
Minimum temperature yesterday: 84 °F (at 6:00 AM)
Average temperature yesterday: 89 °F

High & Low Weather Summary for the Past Weeks

 TemperatureHumidityPressure
High99 °F (Sep 20, 11:00 AM)94% (Sep 17, 6:00 AM)29.83 "Hg (Sep 17, 6:00 AM)
Low82 °F (Sep 22, 3:00 AM)37% (Sep 20, 11:00 AM)29.59 "Hg (Sep 19, 4:00 PM)
Average90 °F65%29.69 "Hg
* Reported Sep 16 5:00 PM — Oct 1 5:00 PM, Jeddah, Weather by CustomWeather, © 2016

Note: Actual official high and low records may vary slightly from our data, if they occured in-between our weather recording intervals... More about our weather records

Advertising

Jeddah Weather History for the Previous 24 Hours

Scroll right to see more
 ConditionsComfort  
Time TempWeatherWind HumidityBarometerVisibility
5:00 PM
Sat, Oct 1
90 °FPassing clouds.12 mph63%29.65 "HgN/A
4:00 PM91 °FPassing clouds.12 mph59%29.62 "HgN/A
3:00 PM93 °FPassing clouds.14 mph56%29.65 "HgN/A
2:00 PM93 °FSunny.13 mph56%29.65 "Hg10 mi
1:00 PM93 °FSunny.16 mph59%29.65 "Hg10 mi
12:00 PM93 °FSunny.13 mph63%29.68 "Hg10 mi
11:00 AM93 °FSunny.14 mph63%29.71 "Hg10 mi
10:00 AM91 °FSunny.5 mph67%29.71 "Hg10 mi
9:00 AM88 °FScattered clouds.5 mph75%29.71 "HgN/A
8:00 AM84 °FPartly sunny.7 mph84%29.71 "HgN/A
7:00 AM84 °FSunny.5 mph84%29.68 "Hg10 mi
6:00 AM82 °FClear.7 mph84%29.68 "Hg10 mi
5:00 AM84 °FClear.5 mph79%29.68 "Hg10 mi
4:00 AM84 °FClear.5 mph79%29.65 "Hg10 mi
3:00 AM84 °FClear.No wind74%29.68 "Hg10 mi
2:00 AM86 °FClear.6 mph75%29.68 "Hg10 mi
1:00 AM84 °FClear.No wind79%29.68 "Hg10 mi
12:00 AM86 °FClear.5 mph75%29.68 "Hg10 mi
11:00 PM
Fri, Sep 30
86 °FClear.No wind75%29.71 "Hg10 mi
10:00 PM88 °FClear.5 mph70%29.71 "Hg10 mi
9:00 PM90 °FPassing clouds.5 mph63%29.71 "HgN/A
8:00 PM90 °FPassing clouds.7 mph63%29.68 "HgN/A
7:00 PM90 °FPassing clouds.7 mph63%29.68 "HgN/A
6:00 PM90 °FPassing clouds.9 mph67%29.65 "HgN/A
Weather by CustomWeather, © 2016

See weather overviewHow to use our weather pages